Skip Navigation Links
Results
28 April 2018
Page 1 of 2 (61 items)
[1]2
Overall Rank
Race No
Name
Time
Division
Team
Country
Starting Position
Laps
Fastest Lap
12Raphaele Lemieux00:15:13.9GeneralSpecialized Rocket EspressoCARow 1900:01:32.0
29Elena Valentini00:15:15.1GeneralT RED Factory Racing TeamITRow 2900:01:33.5
313Margaux Vigie00:15:15.3GeneralSantafixie BLB LondonFRRow 3900:01:33.0
410Paola Panzeri00:15:15.7GeneralSystem Cars-Cinelli-Comense 1887ITRow 2900:01:33.8
517Ainara Elbusto00:15:15.8GeneralSantafixie BLB LondonESRow 4900:01:34.1
61Eleonore Saraiva00:15:16.1GeneralAventon Factory TeamFRRow 1900:01:34.6
721Lena Vogl00:15:16.2GeneralMaloja Pushbikers FemDERow 5900:01:34.2
874Melanie Guedon00:15:17.1GeneralT RED Factory Racing TeamFRRow 16900:01:34.7
98Lisa Worner00:15:17.9GeneralAventon Factory TeamNLRow 2900:01:36.2
107Colleen Gulick00:15:18.3GeneralPickle Juice Pro Cycling TeamUSRow 2900:01:35.7
1136Giorgia Fraiegari00:15:18.3GeneralCykeln Divisione CorseITRow 7900:01:36.1
124Carla NAFRIA00:15:18.4GeneralSpecialized Rocket EspressoESRow 1900:01:36.5
1331Tamika Hingst00:15:18.8GeneralCanyon Rad PackDERow 6900:01:35.9
1414Brooke Philips00:15:19.0GeneralLOVE&ROCKETS - BassoGBRow 3900:01:35.5
1528Poppy Thompson00:15:19.1GeneralLOVE&ROCKETS - BassoGBRow 6900:01:35.4
1641Chelsea Matias00:15:19.2GeneralRodagira Laser TeamUSRow 7900:01:35.7
1779Roxanne Fox00:15:19.2GeneralTeam Schindelhauer-GatesUSRow 12900:01:35.3
183Ash Duban00:15:19.3GeneralThe Meteor // Hey Allez!USRow 1900:01:35.6
1912Sami Sauri00:15:19.6GeneralLA SweatESRow 3900:01:36.4
2048Michelle De Graaf00:15:19.8GeneralIRD Squadra CorseNLRow 8900:01:35.5
2176Nicole Mertz00:15:19.9GeneralThe Meteor // Hey Allez!USRow 10900:01:35.5
2244Keira Mcvitty00:15:20.0GeneralWyndymilla / Hype EnergyGBRow 8900:01:34.8
2319Esther Walker00:15:20.6GeneralAventon Factory TeamUSRow 4900:01:35.4
2415Letizia Galvani00:15:20.9GeneralCykeln Divisione CorseITRow 3900:01:35.6
2538Francisca Campos00:15:21.0GeneralState Bicycle Co.CLRow 7900:01:37.3
2634Emily Beaudoin00:15:21.4GeneralState Bicycle Co.USRow 7900:01:35.4
2723Virginia Cancellieri00:15:21.6GeneralIRD Squadra CorseITRow 5900:01:36.7
2864Evelyn Sifton00:15:21.6GeneralUnattachedCARow 14900:01:34.9
2945Camille Udny00:15:21.7GeneralTeam Look CriteriumFRRow 8900:01:34.7
3027Ashley Faye00:15:21.8GeneralLA SweatNLRow 6900:01:36.3
3116Veronika Volok00:15:21.8GeneralELF Race TeamUSRow 4900:01:35.9
3220Aoife Doherty00:15:22.3General5th Floor CCIERow 4900:01:36.0
3365Gabrielle Carriere00:15:23.3GeneralMa BicycletteCARow 14900:01:34.9
3455Ana Puga00:15:26.2GeneralWTMMXRow 10900:01:37.1
3577Nikki Ulug00:15:27.5GeneralBoneshaker Fixie SquadUSRow 16900:01:37.0
3632Johanna Jahnke00:15:27.8GeneralELF Race TeamDERow 6900:01:37.5
3767Hanna Raymond00:15:27.9GeneralRodagira Laser TeamUSRow 13900:01:37.9
3873Lina Bivainyte00:15:30.9GeneralCadence ColossiLTRow 9900:01:37.9
3957Catherine Mevel00:15:31.7GeneralInside Cycles Speed TeamFRRow 11900:01:37.4
4051Kym Perfetto00:15:31.8GeneralAventon Factory TeamUSRow 9900:01:38.6
4154Asia Morris00:15:32.4GeneralENGINE 11USRow 9900:01:38.7
4247Fleur Faure00:15:38.4GeneralLA SweatFRRow 8900:01:38.0
4372Leah Goldberg00:15:52.5GeneralFormula FemmeUSRow 15900:01:41.1
4471Lauren Jones00:15:52.7GeneralState Bicycle Co.USRow 11900:01:42.7
4558Christina Hashimoto00:16:06.2GeneralTeam KingdomUSRow 12900:01:41.8
4670Kazuyo Kodama00:16:06.8GeneralsfiDARE Crit JapanJPRow 11900:01:42.3
4768Jenna Latour-Nichols00:16:14.2GeneralTeam Handmade/Don WalkerUSRow 15900:01:42.3
4860Dazie Holt00:16:17.2GeneralTeam CinelliUSRow 13900:01:44.5
4980Samantha Wipff00:16:20.5GeneralState Bicycle Co.USRow 10900:01:44.1
5078Rebecca Book00:16:33.4GeneralDisTRACtion CircusUSRow 16900:01:46.9
Page 1 of 2 (61 items)
[1]2